Swayam
1 41607U 16040J 17229.38397690 .00001539 00000-0 72508-4 0 9999
2 41607 97.4557 291.0507 0013313 217.0403 142.9915 15.20964938 63905
Pratham
1 41783U 16059A 17229.24266603 .00000053 00000-0 19882-4 0 9994
2 41783 98.1621 289.9687 0032902 331.4674 28.4726 14.62850107 47526
AlSat 1N
1 41789U 16059G 17229.72741752 .00000054 00000-0 19613-4 0 9999
2 41789 98.1625 291.0678 0027683 324.4276 35.5078 14.64064322 47617
ScatSat
1 41790U 16059H 17229.59734706 .00000002 00000-0 11626-4 0 9996
2 41790 098.3052 277.1173 0017492 318.4756 041.5109 14.51718653047164
TY-1
1 41844U 16066D 17229.74538297 .00000959 00000-0 44730-4 0 9991
2 41844 97.4058 235.9736 0017118 28.1725 57.5793 15.22169910 42709
CAS-2T
1 41845U 16066E 17229.84667475 .00000098 00000-0 24743-4 0 9990
2 41845 98.7762 246.9464 0367730 65.3143 298.5862 14.37774497 40351
Pegasus-1
1 41846U 16066F 17229.58374511 .00000444 00000-0 77263-4 0 9998
2 41846 098.7792 246.4189 0370360 067.6038 296.3945 14.37062321040292
STARS-C
1 41895U 98067KR 17229.46575134 .00026182 00000-0 27282-3 0 9996
2 41895 051.6375 084.1020 0004717 179.0690 181.0315 15.64348167037578
Tancredo 1
1 41931U 98067KT 17229.76240890 .00083160 00000-0 57352-3 0 9998
2 41931 51.6343 76.2759 0005379 162.2768 197.8420 15.73849185 33271
TO-89
1 41932U 98067KU 17229.51678399 .00013215 00000-0 16244-3 0 9990
2 41932 051.6406 086.7292 0005920 136.8989 223.2469 15.60613314033113
AOBA-V3LOX3
1 41935U 98067KX 17229.74807691 .00016599 00000-0 19875-3 0 9998
2 41935 51.6403 85.2682 0005334 141.4294 218.7082 15.61088660 33256
OSNSAT
1 41939U 98067KZ 17229.62239106 .00037335 00000-0 35004-3 0 9992
2 41939 51.6374 81.3870 0006364 147.2880 212.8511 15.66799975 32548
EO-88
1 42017U 17008BX 17229.60024553 .00001631 00000-0 72029-4 0 9991
2 42017 097.4904 290.9281 0006900 020.8677 339.2840 15.23164530027834
HAVELSAT
1 42700U 98067LH 17229.84170108 .00014619 00000-0 20414-3 0 9998
2 42700 51.6397 89.6262 0006663 186.4900 173.6006 15.57100025 14541
SOMP2
1 42701U 98067LJ 17229.84805852 .00013500 00000-0 19058-3 0 9990
2 42701 51.6404 89.6717 0006581 187.1344 172.9556 15.56881804 14536
Columbia
1 42702U 98067LK 17229.85193363 .00032582 00000-0 41448-3 0 9998
2 42702 51.6396 88.9458 0007097 181.6977 178.3993 15.59032271 14472
PHOENIX
1 42706U 98067LP 17229.84517020 .00012420 00000-0 17552-3 0 9999
2 42706 51.6403 89.6545 0002267 151.6642 208.4474 15.56955717 14453
X-CubeSat
1 42707U 98067LQ 17229.84607585 .00013682 00000-0 19238-3 0 9990
2 42707 51.6398 89.6575 0002280 152.2538 207.8576 15.56992235 14447
qbee
1 42708U 98067LR 17229.84829653 .00013327 00000-0 18788-3 0 9998
2 42708 51.6399 89.6727 0002362 153.3251 206.7862 15.56947270 14404
ZA-AeroSat
1 42713U 98067LU 17229.86539409 .00011411 00000-0 16454-3 0 9993
2 42713 51.6400 89.7865 0003207 124.5272 235.6022 15.56502021 14117
LINK
1 42714U 98067LV 17229.85727437 .00018084 00000-0 25200-3 0 9995
2 42714 51.6394 89.7296 0003420 133.2848 226.8429 15.56985982 14227
UPSat
1 42716U 98067LX 17229.84418784 .00015349 00000-0 21337-3 0 9996
2 42716 51.6398 89.6443 0005004 185.9554 174.1379 15.57185188 14246
SpaceCube
1 42717U 98067LY 17229.85565331 .00013181 00000-0 18677-3 0 9994
2 42717 51.6398 89.7207 0005006 186.6382 173.4544 15.56813435 13488
Hoopoe
1 42718U 98067LZ 17229.85018937 .00014369 00000-0 20144-3 0 9991
2 42718 51.6402 89.6857 0004999 185.6069 174.4868 15.57017208 13481
Challenger
1 42721U 98067MA 17229.85639217 .00020206 00000-0 27777-3 0 9991
2 42721 51.6394 89.7226 0008382 171.1009 189.0133 15.57240609 13187
NJUST-1
1 42722U 98067MB 17229.88360040 .00011778 00000-0 17110-3 0 9994
2 42722 51.6399 89.9051 0008093 172.0844 188.0276 15.56240291 13180
UNSW-EC0
1 42723U 98067MC 17229.87227356 .00016105 00000-0 22746-3 0 9996
2 42723 51.6404 89.8312 0008091 171.1981 188.9154 15.56693683 13166
DUTHsat
1 42724U 98067MD 17229.86319440 .00019816 00000-0 27421-3 0 9999
2 42724 51.6398 89.7695 0007359 172.7252 187.3848 15.57085344 13080
LO-90
1 42725U 98067ME 17229.88581914 .00013768 00000-0 19854-3 0 9990
2 42725 51.6403 89.9215 0007058 173.8376 186.2704 15.56281744 13083
nSIGHT1
1 42726U 98067MF 17229.83779746 .00010447 00000-0 15598-3 0 9990
2 42726 51.6405 90.3513 0006943 174.7867 185.3198 15.55643400 13087
QBITO
1 42728U 98067MH 17229.87500019 .00015392 00000-0 21883-3 0 9999
2 42728 51.6406 89.8520 0004278 176.0197 184.0830 15.56576165 12892
Aalto-2
1 42729U 98067MJ 17229.87482681 .00014779 00000-0 21038-3 0 9994
2 42729 51.6400 89.8491 0004288 176.1353 183.9673 15.56578726 12900
SUSat
1 42730U 98067MK 17229.87742207 .00012299 00000-0 17694-3 0 9997
2 42730 51.6397 89.8653 0004288 174.0234 186.0809 15.56477766 12897
i-INSPIRE II
1 42731U 98067ML 17229.87052490 .00018067 00000-0 25355-3 0 9998
2 42731 51.6395 89.8129 0008309 127.9231 232.2513 15.56769272 12944
PolyITAN-2-SAU
1 42732U 98067MM 17229.87305978 .00015109 00000-0 21431-3 0 9996
2 42732 51.6392 89.8299 0008275 127.2840 232.8907 15.56632752 12946
SNUSAT-1
1 42733U 98067MN 17229.87838050 .00014942 00000-0 21324-3 0 9994
2 42733 51.6394 89.8659 0008171 128.4457 231.7269 15.56477906 12948
ExAlta-1
1 42734U 98067MP 17229.87025246 .00016383 00000-0 23049-3 0 9997
2 42734 51.6396 89.8127 0009890 149.6291 210.5275 15.56766645 12898
Aoxiang-1
1 42735U 98067MQ 17229.23975744 .00009064 00000-0 13312-3 0 9995
2 42735 051.6399 093.1043 0008795 166.8665 193.2557 15.56277086014210
BeEagleSat
1 42736U 98067MR 17229.88107386 .00012997 00000-0 18713-3 0 9995
2 42736 51.6397 89.8876 0008746 168.4716 191.6477 15.56371464 13000
Atlantis
1 42737U 98067MS 17229.06623006 .00021567 00000-0 28678-3 0 9992
2 42737 51.6388 93.4427 0009075 163.8201 196.3083 15.58081487 12771
CAS-4B
1 42759U 17034B 17229.75083924 .00000170 00000-0 24216-4 0 9998
2 42759 43.0199 308.6967 0008322 3.3088 144.4937 15.08944165 9601
CAS-4A
1 42761U 17034D 17229.74772250 .00000172 00000-0 24326-4 0 9991
2 42761 43.0205 308.6732 0008544 4.8497 142.8781 15.09018108 9595
UCLSat
1 42765U 17036A 17229.54338500 .00001451 00000-0 68861-4 0 9994
2 42765 097.4451 288.6618 0013628 064.2814 295.9827 15.20794469009132
NIUSat
1 42766U 17036B 17229.58898025 .00001122 00000-0 55877-4 0 9990
2 42766 097.4454 288.6033 0017534 049.5731 310.7029 15.19528490008418
LituanicaSAT 2
1 42768U 17036D 17229.38689678 .00002210 00000-0 10634-3 0 9992
2 42768 97.4453 288.4119 0017606 53.5942 306.6914 15.19706558 8398
InflateSail
1 42770U 17036F 17229.74979459 .00493836 00000-0 12123-1 0 9995
2 42770 97.4473 289.4603 0007240 140.3919 219.7856 15.38683746 8421
Aalto 1
1 42775U 17036L 17229.37335863 .00000927 00000-0 46094-4 0 9996
2 42775 097.4453 288.4319 0015733 051.6468 308.6178 15.20015900008333
URSA MAIOR
1 42776U 17036M 17229.24034702 .00000930 00000-0 46185-4 0 9996
2 42776 097.4455 288.3054 0015605 052.5272 307.7379 15.20054015008313
Max Valier Sat
1 42778U 17036P 17230.01642446 .00001179 00000-0 57101-4 0 9991
2 42778 97.4470 289.1144 0014165 56.6764 303.5787 15.20440634 8427
Pegasus
1 42784U 17036V 17229.74551845 .00001332 00000-0 63683-4 0 9991
2 42784 97.4454 288.8523 0014142 63.3857 296.8825 15.20659410 8382
NUDATSat
1 42787U 17036Y 17229.54401005 .00001914 00000-0 89787-4 0 9993
2 42787 097.4454 288.6621 0013808 064.6299 295.6364 15.20803091008194
